Temp: 7.4°C   Baro: 1004.8mb
  Wind: 2.0mph   Dir: NE (47°)
  Rain: 5.6mm (0.0mm/hr)
  Solar: 0W/m2  Hum: 95%
 
Bath Spa Weather Historical Data
Daily Summary for October 26, 2019 Units:  Metric    English   Both
Next Day »
Daily Weekly Monthly Yearly Custom
  High: Low: Average:
Temperature: 15.8 °C 5.9 °C 12.2 °C
Dew Point: 14.3 °C 5.0 °C 10.8 °C
Humidity: 94% 88% 92%
Wind Speed: 33.8km/h 0.0km/h 9.8km/h
Wind Gust: 40.2km/h - -
Wind direction- - SW
Pressure: 1017.8 hPa 1002.9 hPa -
Precipitation: 9.7 mm    
Historical Graphs
 
 
Tabular Data for October 26, 2019
Time Temperature Dew Point Pressure Wind direction Wind Speed Wind Gust Humidity Rainfall Rate (Hourly) solar
00:00 15.7 °C 14.2 °C 1005.6 hPa WSW 14.3 km/h 22.5 km/h 91% 0.3 mm 0.00 W/m2
00:05 15.7 °C 14.2 °C 1005.6 hPa SW 17.7 km/h 37.0 km/h 91% 0.3 mm 0.00 W/m2
00:10 15.7 °C 14.2 °C 1005.6 hPa South 24.1 km/h 40.2 km/h 91% 0.5 mm 0.00 W/m2
00:15 15.6 °C 14.1 °C 1005.6 hPa SW 17.7 km/h 32.2 km/h 91% 0.5 mm 0.00 W/m2
00:20 15.7 °C 14.2 °C 1005.6 hPa SW 19.5 km/h 29.0 km/h 91% 0.5 mm 0.00 W/m2
00:25 15.7 °C 14.2 °C 1005.6 hPa SW 20.9 km/h 32.2 km/h 91% 0.5 mm 0.00 W/m2
00:30 15.7 °C 14.2 °C 1005.6 hPa SW 27.4 km/h 37.0 km/h 91% 0.5 mm 0.00 W/m2
00:35 15.7 °C 14.2 °C 1005.6 hPa WSW 25.9 km/h 25.7 km/h 91% 0.5 mm 0.00 W/m2
00:40 15.7 °C 14.2 °C 1005.6 hPa SW 32.0 km/h 32.2 km/h 91% 0.5 mm 0.00 W/m2
00:45 15.7 °C 14.2 °C 1005.6 hPa SSW 7.9 km/h 24.1 km/h 91% 0.5 mm 0.00 W/m2
00:50 15.7 °C 14.2 °C 1005.6 hPa WSW 13.0 km/h 22.5 km/h 91% 0.3 mm 0.00 W/m2
00:55 15.7 °C 14.2 °C 1005.6 hPa SSW 17.7 km/h 35.4 km/h 91% 0.3 mm 0.00 W/m2
01:00 15.7 °C 14.1 °C 1005.6 hPa SW 25.9 km/h 32.2 km/h 90% 0.3 mm 0.00 W/m2
01:05 15.7 °C 14.1 °C 1006.0 hPa SSW 14.3 km/h 35.4 km/h 90% 0.3 mm 0.00 W/m2
01:10 15.7 °C 14.1 °C 1005.6 hPa WSW 11.1 km/h 33.8 km/h 90% 0.0 mm 0.00 W/m2
01:15 15.7 °C 14.1 °C 1005.6 hPa SW 13.0 km/h 24.1 km/h 90% 0.0 mm 0.00 W/m2
01:20 15.7 °C 14.1 °C 1005.6 hPa SSW 11.1 km/h 30.6 km/h 90% 0.0 mm 0.00 W/m2
01:25 15.7 °C 14.1 °C 1005.6 hPa SSW 16.3 km/h 20.9 km/h 90% 0.0 mm 0.00 W/m2
01:30 15.7 °C 14.1 °C 1005.6 hPa South 13.0 km/h 29.0 km/h 90% 0.0 mm 0.00 W/m2
01:35 15.7 °C 14.2 °C 1005.6 hPa WSW 19.5 km/h 33.8 km/h 91% 0.0 mm 0.00 W/m2
01:40 15.7 °C 14.1 °C 1005.6 hPa South 9.7 km/h 25.7 km/h 90% 0.0 mm 0.00 W/m2
01:45 15.8 °C 14.2 °C 1005.6 hPa South 16.3 km/h 19.3 km/h 90% 0.0 mm 0.00 W/m2
01:50 15.8 °C 14.2 °C 1005.6 hPa WSW 6.4 km/h 20.9 km/h 90% 0.0 mm 0.00 W/m2
01:55 15.8 °C 14.2 °C 1005.6 hPa SW 11.1 km/h 29.0 km/h 90% 0.0 mm 0.00 W/m2
02:00 15.8 °C 14.2 °C 1005.6 hPa SW 9.7 km/h 29.0 km/h 90% 0.0 mm 0.00 W/m2
02:05 15.7 °C 14.1 °C 1005.6 hPa SSW 16.3 km/h 32.2 km/h 90% 0.0 mm 0.00 W/m2
02:10 15.7 °C 14.1 °C 1005.6 hPa SW 13.0 km/h 22.5 km/h 90% 0.0 mm 0.00 W/m2
02:15 15.6 °C 14.1 °C 1005.3 hPa SW 9.7 km/h 29.0 km/h 91% 0.0 mm 0.00 W/m2
02:20 15.4 °C 13.9 °C 1005.6 hPa SSW 13.0 km/h 32.2 km/h 91% 0.0 mm 0.00 W/m2
02:25 15.4 °C 13.9 °C 1005.3 hPa SW 16.3 km/h 32.2 km/h 91% 0.3 mm 0.00 W/m2
02:30 15.4 °C 14.1 °C 1005.3 hPa SSW 27.4 km/h 27.4 km/h 92% 0.3 mm 0.00 W/m2
02:35 15.3 °C 14.0 °C 1005.3 hPa SW 11.1 km/h 24.1 km/h 92% 0.3 mm 0.00 W/m2
02:40 15.4 °C 14.1 °C 1005.3 hPa SW 19.5 km/h 30.6 km/h 92% 0.3 mm 0.00 W/m2
02:45 15.4 °C 14.1 °C 1005.6 hPa WSW 19.5 km/h 30.6 km/h 92% 0.5 mm 0.00 W/m2
02:50 15.4 °C 14.1 °C 1005.3 hPa WSW 7.9 km/h 24.1 km/h 92% 0.5 mm 0.00 W/m2
02:55 15.3 °C 14.0 °C 1005.3 hPa SSW 9.7 km/h 27.4 km/h 92% 0.5 mm 0.00 W/m2
03:00 15.3 °C 14.0 °C 1005.3 hPa WSW 14.3 km/h 30.6 km/h 92% 0.5 mm 0.00 W/m2
03:05 15.3 °C 14.0 °C 1005.3 hPa SW 6.4 km/h 24.1 km/h 92% 0.8 mm 0.00 W/m2
03:10 15.3 °C 14.0 °C 1005.3 hPa SW 9.7 km/h 20.9 km/h 92% 0.8 mm 0.00 W/m2
03:15 15.3 °C 14.0 °C 1005.0 hPa SW 17.7 km/h 20.9 km/h 92% 0.8 mm 0.00 W/m2
03:20 15.3 °C 14.0 °C 1005.3 hPa SW 7.9 km/h 29.0 km/h 92% 1.0 mm 0.00 W/m2
03:25 15.3 °C 14.0 °C 1005.3 hPa SW 9.7 km/h 27.4 km/h 92% 0.8 mm 0.00 W/m2
03:30 15.3 °C 14.0 °C 1005.0 hPa SSW 19.5 km/h 33.8 km/h 92% 0.8 mm 0.00 W/m2
03:35 15.4 °C 14.1 °C 1005.0 hPa SSW 16.3 km/h 32.2 km/h 92% 0.8 mm 0.00 W/m2
03:40 15.4 °C 14.1 °C 1005.0 hPa WSW 9.7 km/h 32.2 km/h 92% 0.8 mm 0.00 W/m2
03:45 15.4 °C 14.1 °C 1005.0 hPa SSW 17.7 km/h 37.0 km/h 92% 0.8 mm 0.00 W/m2
03:50 15.4 °C 14.1 °C 1005.0 hPa SW 11.1 km/h 19.3 km/h 92% 0.8 mm 0.00 W/m2
03:55 15.4 °C 13.9 °C 1005.0 hPa SSW 7.9 km/h 29.0 km/h 91% 0.5 mm 0.00 W/m2
04:00 15.5 °C 14.0 °C 1005.0 hPa SSW 9.7 km/h 22.5 km/h 91% 0.5 mm 0.00 W/m2
04:05 15.6 °C 14.1 °C 1004.6 hPa SW 19.5 km/h 29.0 km/h 91% 0.5 mm 0.00 W/m2
04:10 15.6 °C 14.1 °C 1004.6 hPa SW 6.4 km/h 22.5 km/h 91% 0.5 mm 0.00 W/m2
04:15 15.6 °C 14.0 °C 1004.6 hPa SW 6.4 km/h 25.7 km/h 90% 0.5 mm 0.00 W/m2
04:20 15.6 °C 14.0 °C 1004.6 hPa WSW 16.3 km/h 24.1 km/h 90% 0.3 mm 0.00 W/m2
04:25 15.7 °C 14.1 °C 1004.6 hPa SSW 11.1 km/h 32.2 km/h 90% 0.3 mm 0.00 W/m2
04:30 15.7 °C 13.9 °C 1004.6 hPa SW 7.9 km/h 12.9 km/h 89% 0.3 mm 0.00 W/m2
04:35 15.7 °C 13.9 °C 1004.6 hPa SSW 16.3 km/h 30.6 km/h 89% 0.3 mm 0.00 W/m2
04:40 15.7 °C 13.9 °C 1004.6 hPa South 17.7 km/h 25.7 km/h 89% 0.3 mm 0.00 W/m2
04:45 15.7 °C 13.9 °C 1004.6 hPa WSW 28.8 km/h 29.0 km/h 89% 0.0 mm 0.00 W/m2
04:50 15.7 °C 13.9 °C 1004.6 hPa SSW 6.4 km/h 35.4 km/h 89% 0.0 mm 0.00 W/m2
04:55 15.8 °C 14.0 °C 1004.6 hPa SSW 19.5 km/h 40.2 km/h 89% 0.0 mm 0.00 W/m2
05:00 15.8 °C 14.0 °C 1004.6 hPa SW 17.7 km/h 25.7 km/h 89% 0.0 mm 0.00 W/m2
05:05 15.7 °C 13.9 °C 1004.6 hPa SW 22.7 km/h 27.4 km/h 89% 0.0 mm 0.00 W/m2
05:10 15.7 °C 13.9 °C 1004.6 hPa WSW 16.3 km/h 27.4 km/h 89% 0.0 mm 0.00 W/m2
05:15 15.7 °C 13.9 °C 1004.6 hPa WSW 22.7 km/h 30.6 km/h 89% 0.0 mm 0.00 W/m2
05:20 15.6 °C 13.8 °C 1004.6 hPa SW 19.5 km/h 27.4 km/h 89% 0.0 mm 0.00 W/m2
05:25 15.7 °C 13.9 °C 1004.6 hPa South 11.1 km/h 24.1 km/h 89% 0.0 mm 0.00 W/m2
05:30 15.6 °C 13.8 °C 1004.6 hPa South 9.7 km/h 22.5 km/h 89% 0.0 mm 0.00 W/m2
05:35 15.7 °C 13.9 °C 1004.6 hPa SSW 13.0 km/h 16.1 km/h 89% 0.0 mm 0.00 W/m2
05:40 15.7 °C 13.9 °C 1004.3 hPa SW 14.3 km/h 27.4 km/h 89% 0.0 mm 0.00 W/m2
05:45 15.7 °C 13.9 °C 1004.6 hPa SW 14.3 km/h 17.7 km/h 89% 0.0 mm 0.00 W/m2
05:50 15.7 °C 13.9 °C 1004.6 hPa South 9.7 km/h 20.9 km/h 89% 0.0 mm 0.00 W/m2
05:55 15.8 °C 14.0 °C 1004.6 hPa WSW 16.3 km/h 33.8 km/h 89% 0.0 mm 0.00 W/m2
06:00 15.8 °C 13.8 °C 1004.6 hPa SW 14.3 km/h 20.9 km/h 88% 0.0 mm 0.00 W/m2
06:05 15.8 °C 13.8 °C 1004.6 hPa SSW 24.1 km/h 24.1 km/h 88% 0.0 mm 0.00 W/m2
06:10 15.7 °C 13.9 °C 1004.6 hPa SW 9.7 km/h 27.4 km/h 89% 0.0 mm 0.00 W/m2
06:15 15.7 °C 13.9 °C 1004.6 hPa SW 19.5 km/h 30.6 km/h 89% 0.0 mm 0.00 W/m2
06:20 15.6 °C 13.8 °C 1004.6 hPa South 22.7 km/h 27.4 km/h 89% 0.0 mm 0.00 W/m2
06:25 15.6 °C 13.8 °C 1004.6 hPa WSW 28.8 km/h 29.0 km/h 89% 0.0 mm 0.00 W/m2
06:30 15.6 °C 13.8 °C 1004.6 hPa SW 7.9 km/h 19.3 km/h 89% 0.0 mm 0.00 W/m2
06:35 15.6 °C 13.8 °C 1004.6 hPa SW 11.1 km/h 16.1 km/h 89% 0.0 mm 0.00 W/m2
06:40 15.6 °C 13.8 °C 1004.6 hPa South 9.7 km/h 20.9 km/h 89% 0.0 mm 0.00 W/m2
06:45 15.6 °C 13.8 °C 1004.6 hPa SSW 13.0 km/h 19.3 km/h 89% 0.0 mm 0.00 W/m2
06:50 15.6 °C 13.8 °C 1004.6 hPa SW 17.7 km/h 19.3 km/h 89% 0.0 mm 0.00 W/m2
06:55 15.6 °C 13.8 °C 1004.3 hPa SW 25.9 km/h 25.7 km/h 89% 0.0 mm 0.00 W/m2
07:00 15.6 °C 13.8 °C 1004.6 hPa SSW 19.5 km/h 24.1 km/h 89% 0.0 mm 0.00 W/m2
07:05 15.7 °C 13.9 °C 1004.6 hPa SSW 14.3 km/h 29.0 km/h 89% 0.0 mm 0.00 W/m2
07:10 15.6 °C 13.8 °C 1004.3 hPa SSW 25.9 km/h 32.2 km/h 89% 0.0 mm 0.00 W/m2
07:15 15.6 °C 13.8 °C 1004.3 hPa SSW 22.7 km/h 27.4 km/h 89% 0.0 mm 0.00 W/m2
07:20 15.6 °C 13.8 °C 1004.6 hPa SW 33.8 km/h 37.0 km/h 89% 0.0 mm 0.00 W/m2
07:25 15.5 °C 13.7 °C 1004.3 hPa SW 7.9 km/h 22.5 km/h 89% 0.0 mm 0.00 W/m2
07:30 15.5 °C 13.7 °C 1004.3 hPa SW 13.0 km/h 22.5 km/h 89% 0.0 mm 0.00 W/m2
07:35 15.4 °C 13.8 °C 1004.3 hPa SSW 20.9 km/h 20.9 km/h 90% 0.0 mm 0.00 W/m2
07:40 15.5 °C 13.9 °C 1004.3 hPa WSW 14.3 km/h 25.7 km/h 90% 0.0 mm 0.00 W/m2
07:45 15.5 °C 13.9 °C 1004.6 hPa SSW 9.7 km/h 19.3 km/h 90% 0.0 mm 0.00 W/m2
07:50 15.5 °C 13.7 °C 1004.6 hPa SSW 20.9 km/h 30.6 km/h 89% 0.0 mm 0.00 W/m2
07:55 15.5 °C 13.7 °C 1004.6 hPa SW 13.0 km/h 19.3 km/h 89% 0.0 mm 0.00 W/m2
08:00 15.5 °C 13.7 °C 1004.3 hPa SW 24.1 km/h 29.0 km/h 89% 0.0 mm 0.00 W/m2
08:05 15.6 °C 13.8 °C 1004.3 hPa SW 13.0 km/h 22.5 km/h 89% 0.0 mm 0.00 W/m2
08:10 15.6 °C 13.8 °C 1004.3 hPa SSW 11.1 km/h 27.4 km/h 89% 0.0 mm 0.00 W/m2
08:15 15.6 °C 13.6 °C 1004.3 hPa SW 17.7 km/h 27.4 km/h 88% 0.0 mm 0.00 W/m2
08:20 15.7 °C 13.7 °C 1004.3 hPa WSW 9.7 km/h 24.1 km/h 88% 0.0 mm 0.00 W/m2
08:25 15.6 °C 13.6 °C 1004.3 hPa SW 9.7 km/h 17.7 km/h 88% 0.3 mm 5.00 W/m2
08:30 15.5 °C 13.5 °C 1004.3 hPa SW 20.9 km/h 22.5 km/h 88% 0.3 mm 5.00 W/m2
08:35 15.4 °C 13.6 °C 1004.3 hPa SW 4.7 km/h 19.3 km/h 89% 0.3 mm 7.00 W/m2
08:40 15.3 °C 13.5 °C 1004.6 hPa SSW 7.9 km/h 22.5 km/h 89% 0.3 mm 5.00 W/m2
08:45 15.3 °C 13.5 °C 1004.3 hPa SW 13.0 km/h 25.7 km/h 89% 0.3 mm 5.00 W/m2
08:50 15.3 °C 13.5 °C 1004.6 hPa West 24.1 km/h 30.6 km/h 89% 0.3 mm 0.00 W/m2
08:55 15.3 °C 13.5 °C 1004.6 hPa SW 13.0 km/h 33.8 km/h 89% 0.3 mm 0.00 W/m2
09:00 15.3 °C 13.5 °C 1004.6 hPa SW 25.9 km/h 25.7 km/h 89% 0.3 mm 7.00 W/m2
09:05 15.4 °C 13.6 °C 1004.6 hPa SSW 17.7 km/h 25.7 km/h 89% 0.3 mm 7.00 W/m2
09:10 15.3 °C 13.5 °C 1004.6 hPa SSW 11.1 km/h 24.1 km/h 89% 0.3 mm 7.00 W/m2
09:15 15.3 °C 13.5 °C 1004.6 hPa SW 19.5 km/h 19.3 km/h 89% 0.5 mm 19.00 W/m2
09:20 15.3 °C 13.5 °C 1004.6 hPa SW 11.1 km/h 11.3 km/h 89% 0.5 mm 14.00 W/m2
09:25 15.2 °C 13.6 °C 1004.6 hPa WSW 11.1 km/h 25.7 km/h 90% 0.5 mm 19.00 W/m2
09:30 15.2 °C 13.6 °C 1004.6 hPa SW 13.0 km/h 19.3 km/h 90% 0.5 mm 12.00 W/m2
09:35 15.1 °C 13.5 °C 1004.6 hPa SSE 7.9 km/h 22.5 km/h 90% 0.8 mm 16.00 W/m2
09:40 15.1 °C 13.5 °C 1004.3 hPa South 16.3 km/h 16.1 km/h 90% 1.0 mm 18.00 W/m2
09:45 15.1 °C 13.6 °C 1004.3 hPa SW 3.2 km/h 16.1 km/h 91% 1.0 mm 30.00 W/m2
09:50 15.1 °C 13.6 °C 1004.3 hPa South 7.9 km/h 20.9 km/h 91% 1.0 mm 14.00 W/m2
09:55 15.1 °C 13.6 °C 1004.3 hPa WSW 13.0 km/h 22.5 km/h 91% 1.3 mm 21.00 W/m2
10:00 15.1 °C 13.6 °C 1004.3 hPa SW 13.0 km/h 17.7 km/h 91% 1.3 mm 26.00 W/m2
10:05 15.2 °C 13.7 °C 1004.3 hPa West 17.7 km/h 20.9 km/h 91% 1.3 mm 30.00 W/m2
10:10 15.2 °C 13.7 °C 1003.9 hPa SW 13.0 km/h 30.6 km/h 91% 1.3 mm 26.00 W/m2
10:15 15.1 °C 13.6 °C 1003.9 hPa SW 11.1 km/h 24.1 km/h 91% 1.3 mm 28.00 W/m2
10:20 15.2 °C 13.7 °C 1003.9 hPa SW 17.7 km/h 20.9 km/h 91% 1.0 mm 37.00 W/m2
10:25 15.1 °C 13.6 °C 1003.9 hPa SSW 3.2 km/h 19.3 km/h 91% 0.8 mm 49.00 W/m2
10:30 15.1 °C 13.6 °C 1003.9 hPa WSW 7.9 km/h 25.7 km/h 91% 1.0 mm 58.00 W/m2
10:35 15.0 °C 13.5 °C 1003.9 hPa SSW 9.7 km/h 22.5 km/h 91% 1.0 mm 79.00 W/m2
10:40 14.9 °C 13.4 °C 1003.6 hPa South 13.0 km/h 33.8 km/h 91% 1.0 mm 70.00 W/m2
10:45 14.9 °C 13.6 °C 1003.6 hPa SSW 9.7 km/h 30.6 km/h 92% 1.0 mm 51.00 W/m2
10:50 15.0 °C 13.7 °C 1003.9 hPa SW 19.5 km/h 24.1 km/h 92% 1.3 mm 47.00 W/m2
10:55 15.0 °C 13.7 °C 1003.9 hPa SSW 11.1 km/h 22.5 km/h 92% 1.0 mm 35.00 W/m2
11:00 15.0 °C 13.7 °C 1003.9 hPa SSW 13.0 km/h 24.1 km/h 92% 1.3 mm 23.00 W/m2
11:05 15.0 °C 13.7 °C 1003.9 hPa SSW 16.3 km/h 25.7 km/h 92% 1.5 mm 25.00 W/m2
11:10 15.0 °C 13.7 °C 1003.9 hPa SW 30.6 km/h 38.6 km/h 92% 1.5 mm 32.00 W/m2
11:15 15.0 °C 13.7 °C 1003.9 hPa West 19.5 km/h 30.6 km/h 92% 1.5 mm 32.00 W/m2
11:20 14.9 °C 13.6 °C 1003.9 hPa South 9.7 km/h 11.3 km/h 92% 1.8 mm 40.00 W/m2
11:25 14.9 °C 13.6 °C 1003.6 hPa SSW 17.7 km/h 29.0 km/h 92% 2.0 mm 25.00 W/m2
11:30 15.0 °C 13.7 °C 1003.9 hPa SW 9.7 km/h 29.0 km/h 92% 2.0 mm 37.00 W/m2
11:35 15.0 °C 13.7 °C 1003.6 hPa SSW 11.1 km/h 25.7 km/h 92% 2.0 mm 32.00 W/m2
11:40 15.0 °C 13.7 °C 1003.6 hPa SW 7.9 km/h 22.5 km/h 92% 2.0 mm 33.00 W/m2
11:45 15.1 °C 13.8 °C 1003.6 hPa SW 16.3 km/h 27.4 km/h 92% 2.0 mm 37.00 W/m2
11:50 15.1 °C 13.8 °C 1003.6 hPa SSW 17.7 km/h 25.7 km/h 92% 2.0 mm 35.00 W/m2
11:55 15.1 °C 13.8 °C 1003.6 hPa South 11.1 km/h 25.7 km/h 92% 2.0 mm 35.00 W/m2
12:00 15.1 °C 13.8 °C 1003.6 hPa SSW 4.7 km/h 17.7 km/h 92% 2.0 mm 37.00 W/m2
12:05 15.1 °C 13.8 °C 1003.6 hPa SW 14.3 km/h 29.0 km/h 92% 2.0 mm 37.00 W/m2
12:10 15.1 °C 13.8 °C 1003.6 hPa SW 19.5 km/h 33.8 km/h 92% 2.0 mm 35.00 W/m2
12:15 15.2 °C 13.9 °C 1003.6 hPa WSW 24.1 km/h 24.1 km/h 92% 1.8 mm 25.00 W/m2
12:20 15.2 °C 13.9 °C 1003.6 hPa SSW 11.1 km/h 25.7 km/h 92% 1.8 mm 28.00 W/m2
12:25 15.2 °C 13.9 °C 1003.6 hPa WSW 11.1 km/h 17.7 km/h 92% 1.5 mm 39.00 W/m2
12:30 15.2 °C 13.9 °C 1003.6 hPa SSW 6.4 km/h 19.3 km/h 92% 1.5 mm 39.00 W/m2
12:35 15.2 °C 13.9 °C 1003.3 hPa WSW 28.8 km/h 29.0 km/h 92% 1.5 mm 42.00 W/m2
12:40 15.2 °C 13.9 °C 1003.3 hPa SW 17.7 km/h 22.5 km/h 92% 1.5 mm 42.00 W/m2
12:45 15.3 °C 14.0 °C 1003.3 hPa SSW 25.9 km/h 27.4 km/h 92% 1.5 mm 23.00 W/m2
12:50 15.3 °C 14.0 °C 1003.3 hPa WSW 16.3 km/h 22.5 km/h 92% 1.5 mm 32.00 W/m2
12:55 15.3 °C 14.0 °C 1003.3 hPa SSW 11.1 km/h 25.7 km/h 92% 1.8 mm 26.00 W/m2
13:00 15.3 °C 14.0 °C 1003.3 hPa SW 9.7 km/h 25.7 km/h 92% 1.5 mm 23.00 W/m2
13:05 15.4 °C 14.1 °C 1003.3 hPa WSW 13.0 km/h 33.8 km/h 92% 1.5 mm 21.00 W/m2
13:10 15.4 °C 14.1 °C 1003.3 hPa SSW 9.7 km/h 19.3 km/h 92% 1.5 mm 26.00 W/m2
13:15 15.4 °C 14.1 °C 1003.3 hPa SSW 11.1 km/h 19.3 km/h 92% 1.8 mm 26.00 W/m2
13:20 15.4 °C 14.1 °C 1003.3 hPa SW 19.5 km/h 33.8 km/h 92% 1.5 mm 28.00 W/m2
13:25 15.4 °C 14.1 °C 1003.3 hPa SW 9.7 km/h 30.6 km/h 92% 1.8 mm 21.00 W/m2
13:30 15.5 °C 14.2 °C 1003.3 hPa WSW 14.3 km/h 22.5 km/h 92% 1.5 mm 19.00 W/m2
13:35 15.5 °C 14.2 °C 1002.9 hPa WSW 16.3 km/h 25.7 km/h 92% 1.5 mm 26.00 W/m2
13:40 15.5 °C 14.2 °C 1002.9 hPa SW 19.5 km/h 24.1 km/h 92% 1.5 mm 32.00 W/m2
13:45 15.6 °C 14.3 °C 1003.3 hPa WSW 4.7 km/h 24.1 km/h 92% 1.5 mm 26.00 W/m2
13:50 15.6 °C 14.3 °C 1003.3 hPa SSW 17.7 km/h 22.5 km/h 92% 1.3 mm 14.00 W/m2
13:55 15.6 °C 14.3 °C 1003.3 hPa SW 7.9 km/h 17.7 km/h 92% 1.0 mm 12.00 W/m2
14:00 15.5 °C 14.2 °C 1003.3 hPa WSW 14.3 km/h 30.6 km/h 92% 1.0 mm 16.00 W/m2
14:05 15.5 °C 14.2 °C 1003.3 hPa WSW 4.7 km/h 14.5 km/h 92% 0.8 mm 25.00 W/m2
14:10 15.4 °C 14.1 °C 1003.3 hPa WSW 7.9 km/h 22.5 km/h 92% 0.5 mm 40.00 W/m2
14:15 15.4 °C 14.3 °C 1003.3 hPa SW 9.7 km/h 19.3 km/h 93% 0.5 mm 39.00 W/m2
14:20 15.4 °C 14.3 °C 1003.6 hPa WSW 7.9 km/h 24.1 km/h 93% 0.5 mm 30.00 W/m2
14:25 15.4 °C 14.3 °C 1003.3 hPa WSW 11.1 km/h 20.9 km/h 93% 0.3 mm 37.00 W/m2
14:30 15.4 °C 14.3 °C 1003.6 hPa WSW 4.7 km/h 11.3 km/h 93% 0.3 mm 14.00 W/m2
14:35 13.9 °C 12.6 °C 1003.6 hPa North 11.1 km/h 24.1 km/h 92% 0.3 mm 11.00 W/m2
14:40 13.2 °C 11.9 °C 1003.9 hPa NW 6.4 km/h 27.4 km/h 92% 0.3 mm 18.00 W/m2
14:45 10.6 °C 9.4 °C 1003.9 hPa NNW 14.3 km/h 29.0 km/h 92% 0.5 mm 30.00 W/m2
14:50 9.6 °C 8.4 °C 1004.3 hPa North 11.1 km/h 29.0 km/h 92% 0.5 mm 30.00 W/m2
14:55 8.9 °C 7.7 °C 1004.6 hPa NW 16.3 km/h 33.8 km/h 92% 0.5 mm 39.00 W/m2
15:00 8.5 °C 7.3 °C 1004.6 hPa NNE 6.4 km/h 20.9 km/h 92% 0.5 mm 39.00 W/m2
15:05 8.2 °C 7.0 °C 1005.0 hPa North 6.4 km/h 25.7 km/h 92% 0.5 mm 33.00 W/m2
15:10 8.2 °C 7.0 °C 1005.3 hPa NE 1.4 km/h 16.1 km/h 92% 0.5 mm 32.00 W/m2
15:15 8.1 °C 6.9 °C 1005.3 hPa West 7.9 km/h 12.9 km/h 92% 0.5 mm 26.00 W/m2
15:20 8.2 °C 7.1 °C 1005.6 hPa NE 1.4 km/h 12.9 km/h 93% 0.5 mm 30.00 W/m2
15:25 8.1 °C 6.9 °C 1005.6 hPa NNE 4.7 km/h 14.5 km/h 92% 0.5 mm 25.00 W/m2
15:30 7.9 °C 6.8 °C 1006.0 hPa WNW 7.9 km/h 19.3 km/h 93% 0.5 mm 28.00 W/m2
15:35 7.9 °C 6.8 °C 1006.3 hPa NNW 6.4 km/h 12.9 km/h 93% 0.5 mm 33.00 W/m2
15:40 7.8 °C 6.7 °C 1006.3 hPa WNW 6.4 km/h 9.7 km/h 93% 0.5 mm 39.00 W/m2
15:45 7.8 °C 6.7 °C 1006.3 hPa NW 3.2 km/h 8.0 km/h 93% 0.5 mm 25.00 W/m2
15:50 7.9 °C 6.8 °C 1006.7 hPa NW 6.4 km/h 11.3 km/h 93% 0.3 mm 28.00 W/m2
15:55 7.8 °C 6.7 °C 1006.7 hPa WNW 13.0 km/h 14.5 km/h 93% 0.3 mm 28.00 W/m2
16:00 7.7 °C 6.6 °C 1007.0 hPa Calm   9.7 km/h 93% 0.3 mm 28.00 W/m2
16:05 7.7 °C 6.6 °C 1007.0 hPa Calm   12.9 km/h 93% 0.3 mm 21.00 W/m2
16:10 7.6 °C 6.5 °C 1007.3 hPa Calm   6.4 km/h 93% 0.3 mm 25.00 W/m2
16:15 7.6 °C 6.5 °C 1007.3 hPa NNW 4.7 km/h 11.3 km/h 93% 0.3 mm 23.00 W/m2
16:20 7.5 °C 6.4 °C 1007.7 hPa North 16.3 km/h 16.1 km/h 93% 0.3 mm 18.00 W/m2
16:25 7.6 °C 6.5 °C 1007.7 hPa West 3.2 km/h 11.3 km/h 93% 0.5 mm 18.00 W/m2
16:30 7.6 °C 6.5 °C 1008.0 hPa Calm   12.9 km/h 93% 0.5 mm 19.00 W/m2
16:35 7.6 °C 6.5 °C 1008.0 hPa Calm   4.8 km/h 93% 0.5 mm 25.00 W/m2
16:40 7.6 °C 6.5 °C 1008.4 hPa Calm   6.4 km/h 93% 0.3 mm 18.00 W/m2
16:45 7.6 °C 6.5 °C 1008.4 hPa NW 1.4 km/h 6.4 km/h 93% 0.3 mm 14.00 W/m2
16:50 7.4 °C 6.3 °C 1008.7 hPa WNW 3.2 km/h 4.8 km/h 93% 0.3 mm 18.00 W/m2
16:55 7.3 °C 6.2 °C 1008.7 hPa Calm   6.4 km/h 93% 0.3 mm 11.00 W/m2
17:00 7.3 °C 6.2 °C 1008.7 hPa North 4.7 km/h 11.3 km/h 93% 0.3 mm 9.00 W/m2
17:05 7.2 °C 6.1 °C 1008.7 hPa NW 4.7 km/h 11.3 km/h 93% 0.3 mm 14.00 W/m2
17:10 7.2 °C 6.1 °C 1008.7 hPa North 7.9 km/h 9.7 km/h 93% 0.3 mm 12.00 W/m2
17:15 7.1 °C 6.0 °C 1008.7 hPa NNW 1.4 km/h 6.4 km/h 93% 0.3 mm 11.00 W/m2
17:20 7.3 °C 6.2 °C 1008.7 hPa Calm   1.6 km/h 93% 0.3 mm 12.00 W/m2
17:25 7.2 °C 6.1 °C 1009.0 hPa Calm   6.4 km/h 93% 0.0 mm 7.00 W/m2
17:30 7.3 °C 6.4 °C 1009.4 hPa NW 3.2 km/h 6.4 km/h 94% 0.0 mm 5.00 W/m2
17:35 7.3 °C 6.4 °C 1009.7 hPa WNW 3.2 km/h 4.8 km/h 94% 0.0 mm 5.00 W/m2
17:40 7.3 °C 6.4 °C 1009.4 hPa Calm   1.6 km/h 94% 0.0 mm 0.00 W/m2
17:45 7.3 °C 6.4 °C 1010.0 hPa NW 6.4 km/h 6.4 km/h 94% 0.0 mm 0.00 W/m2
17:50 7.3 °C 6.4 °C 1010.0 hPa WNW 6.4 km/h 8.0 km/h 94% 0.0 mm 0.00 W/m2
17:55 7.2 °C 6.1 °C 1010.4 hPa NW 4.7 km/h 8.0 km/h 93% 0.0 mm 0.00 W/m2
18:00 7.2 °C 6.1 °C 1010.4 hPa NW 6.4 km/h 6.4 km/h 93% 0.0 mm 0.00 W/m2
18:05 7.2 °C 6.1 °C 1010.4 hPa NW 9.7 km/h 12.9 km/h 93% 0.0 mm 0.00 W/m2
18:10 7.1 °C 6.0 °C 1010.4 hPa NNW 3.2 km/h 6.4 km/h 93% 0.0 mm 0.00 W/m2
18:15 7.2 °C 6.1 °C 1010.7 hPa WNW 7.9 km/h 11.3 km/h 93% 0.0 mm 0.00 W/m2
18:20 7.1 °C 6.0 °C 1010.7 hPa WNW 1.4 km/h 8.0 km/h 93% 0.0 mm 0.00 W/m2
18:25 7.1 °C 6.0 °C 1010.7 hPa WNW 3.2 km/h 3.2 km/h 93% 0.0 mm 0.00 W/m2
18:30 7.0 °C 5.9 °C 1010.7 hPa Calm   1.6 km/h 93% 0.0 mm 0.00 W/m2
18:35 7.0 °C 5.9 °C 1011.1 hPa Calm   4.8 km/h 93% 0.0 mm 0.00 W/m2
18:40 6.9 °C 5.8 °C 1011.4 hPa Calm   9.7 km/h 93% 0.0 mm 0.00 W/m2
18:45 6.9 °C 5.8 °C 1011.7 hPa Calm   6.4 km/h 93% 0.0 mm 0.00 W/m2
18:50 6.9 °C 5.8 °C 1011.7 hPa WNW 3.2 km/h 8.0 km/h 93% 0.0 mm 0.00 W/m2
18:55 6.9 °C 5.8 °C 1011.7 hPa WNW 3.2 km/h 6.4 km/h 93% 0.0 mm 0.00 W/m2
19:00 6.9 °C 5.8 °C 1011.7 hPa WNW 3.2 km/h 3.2 km/h 93% 0.0 mm 0.00 W/m2
19:05 6.9 °C 5.8 °C 1012.1 hPa WNW 3.2 km/h 4.8 km/h 93% 0.0 mm 0.00 W/m2
19:10 6.9 °C 5.8 °C 1012.4 hPa WNW 1.4 km/h 6.4 km/h 93% 0.0 mm 0.00 W/m2
19:15 6.9 °C 5.8 °C 1012.4 hPa Calm   1.6 km/h 93% 0.0 mm 0.00 W/m2
19:20 7.0 °C 5.9 °C 1012.8 hPa WNW 3.2 km/h 4.8 km/h 93% 0.0 mm 0.00 W/m2
19:25 7.0 °C 5.9 °C 1012.8 hPa WNW 4.7 km/h 8.0 km/h 93% 0.0 mm 0.00 W/m2
19:30 6.9 °C 5.8 °C 1013.1 hPa WNW 1.4 km/h 6.4 km/h 93% 0.0 mm 0.00 W/m2
19:35 6.9 °C 5.8 °C 1012.8 hPa Calm   1.6 km/h 93% 0.0 mm 0.00 W/m2
19:40 6.9 °C 5.8 °C 1013.1 hPa Calm     93% 0.0 mm 0.00 W/m2
19:45 6.9 °C 5.8 °C 1013.4 hPa Calm     93% 0.0 mm 0.00 W/m2
19:50 6.8 °C 5.7 °C 1013.4 hPa Calm     93% 0.0 mm 0.00 W/m2
19:55 6.9 °C 5.8 °C 1013.4 hPa Calm     93% 0.0 mm 0.00 W/m2
20:00 6.8 °C 5.7 °C 1013.4 hPa Calm     93% 0.0 mm 0.00 W/m2
20:05 6.8 °C 5.7 °C 1013.4 hPa Calm     93% 0.0 mm 0.00 W/m2
20:10 6.9 °C 5.8 °C 1013.4 hPa Calm     93% 0.0 mm 0.00 W/m2
20:15 6.9 °C 5.8 °C 1013.4 hPa Calm     93% 0.0 mm 0.00 W/m2
20:20 6.9 °C 5.8 °C 1013.8 hPa Calm     93% 0.0 mm 0.00 W/m2
20:25 6.9 °C 5.8 °C 1014.1 hPa Calm     93% 0.0 mm 0.00 W/m2
20:30 6.9 °C 5.8 °C 1014.1 hPa Calm     93% 0.0 mm 0.00 W/m2
20:35 6.8 °C 5.7 °C 1014.1 hPa Calm     93% 0.0 mm 0.00 W/m2
20:40 6.7 °C 5.6 °C 1014.1 hPa Calm     93% 0.0 mm 0.00 W/m2
20:45 6.7 °C 5.6 °C 1014.4 hPa Calm     93% 0.0 mm 0.00 W/m2
20:50 6.7 °C 5.6 °C 1014.4 hPa Calm     93% 0.0 mm 0.00 W/m2
20:55 6.7 °C 5.6 °C 1014.4 hPa Calm     93% 0.0 mm 0.00 W/m2
21:00 6.7 °C 5.6 °C 1014.8 hPa Calm     93% 0.0 mm 0.00 W/m2
21:05 6.7 °C 5.6 °C 1014.8 hPa Calm     93% 0.0 mm 0.00 W/m2
21:10 6.7 °C 5.6 °C 1014.8 hPa Calm     93% 0.0 mm 0.00 W/m2
21:15 6.7 °C 5.6 °C 1015.1 hPa Calm     93% 0.0 mm 0.00 W/m2
21:20 6.7 °C 5.6 °C 1015.1 hPa Calm     93% 0.0 mm 0.00 W/m2
21:25 6.7 °C 5.6 °C 1015.5 hPa Calm     93% 0.0 mm 0.00 W/m2
21:30 6.6 °C 5.5 °C 1015.5 hPa Calm     93% 0.0 mm 0.00 W/m2
21:35 6.5 °C 5.4 °C 1015.5 hPa Calm     93% 0.0 mm 0.00 W/m2
21:40 6.5 °C 5.4 °C 1015.8 hPa Calm     93% 0.0 mm 0.00 W/m2
21:45 6.4 °C 5.4 °C 1015.8 hPa Calm     93% 0.0 mm 0.00 W/m2
21:50 6.4 °C 5.4 °C 1015.8 hPa Calm     93% 0.0 mm 0.00 W/m2
21:55 6.3 °C 5.3 °C 1016.1 hPa Calm     93% 0.0 mm 0.00 W/m2
22:00 6.3 °C 5.3 °C 1016.1 hPa Calm     93% 0.0 mm 0.00 W/m2
22:05 6.3 °C 5.4 °C 1016.1 hPa Calm     94% 0.0 mm 0.00 W/m2
22:10 6.2 °C 5.3 °C 1016.1 hPa Calm     94% 0.0 mm 0.00 W/m2
22:15 6.1 °C 5.2 °C 1016.5 hPa Calm     94% 0.0 mm 0.00 W/m2
22:20 6.1 °C 5.1 °C 1016.5 hPa Calm     93% 0.0 mm 0.00 W/m2
22:25 6.0 °C 5.0 °C 1016.5 hPa Calm     93% 0.0 mm 0.00 W/m2
22:30 6.0 °C 5.1 °C 1016.8 hPa Calm     94% 0.0 mm 0.00 W/m2
22:35 6.0 °C 5.1 °C 1016.8 hPa Calm     94% 0.0 mm 0.00 W/m2
22:40 5.9 °C 5.0 °C 1016.8 hPa Calm     94% 0.0 mm 0.00 W/m2
22:45 5.9 °C 5.0 °C 1016.8 hPa Calm     94% 0.0 mm 0.00 W/m2
22:50 5.9 °C 5.0 °C 1016.5 hPa Calm     94% 0.0 mm 0.00 W/m2
22:55 6.0 °C 5.1 °C 1016.8 hPa Calm     94% 0.0 mm 0.00 W/m2
23:00 6.0 °C 5.1 °C 1016.8 hPa Calm     94% 0.0 mm 0.00 W/m2
23:05 6.2 °C 5.3 °C 1016.8 hPa Calm     94% 0.0 mm 0.00 W/m2
23:10 6.2 °C 5.3 °C 1016.8 hPa Calm     94% 0.0 mm 0.00 W/m2
23:15 6.1 °C 5.2 °C 1016.8 hPa Calm     94% 0.0 mm 0.00 W/m2
23:20 6.1 °C 5.2 °C 1016.8 hPa Calm     94% 0.0 mm 0.00 W/m2
23:25 6.1 °C 5.2 °C 1017.2 hPa Calm     94% 0.0 mm 0.00 W/m2
23:30 6.1 °C 5.2 °C 1017.2 hPa Calm     94% 0.0 mm 0.00 W/m2
23:35 6.0 °C 5.1 °C 1017.5 hPa Calm     94% 0.0 mm 0.00 W/m2
23:40 6.0 °C 5.1 °C 1017.5 hPa Calm     94% 0.0 mm 0.00 W/m2
23:45 6.0 °C 5.1 °C 1017.5 hPa Calm     94% 0.0 mm 0.00 W/m2
23:50 5.9 °C 5.0 °C 1017.8 hPa Calm     94% 0.0 mm 0.00 W/m2
23:55 5.9 °C 5.0 °C 1017.8 hPa Calm     94% 0.0 mm 0.00 W/m2